This demonstration page uses our WeatherBlox Daily Observations layout. Learn more.

Left ArrowRight Arrow

39.12711, -84.51439

Hourly Observations for July 4, 2022

Temp ( °F °C ) Dew Point ( °F °C ) Humidity (%) Winds ( mph kmh ) Pressure ( in mb ) Visibility ( mi km ) Precip ( " mm )
12:53 am 00:53 Clear with Mist and Fog 69 20.6 65 18.3 87 87 Calm 30.13 1020 5 8 0.00 0.00
1:53 am 01:53 Clear with Mist and Fog 67 19.4 65 18.3 93 93 Calm 30.13 1020 3 5 0.00 0.00
2:23 am 02:23 Clear with Mist and Fog 66 18.9 64 17.8 93 93 Calm 30.14 1021 3 4 0.00 0.00
2:53 am 02:53 Clear with Mist and Fog 66 18.9 65 18.3 96 96 Calm 30.13 1020 2 3 0.00 0.00
3:28 am 03:28 Clear with Mist and Fog 66 18.9 64 17.8 93 93 Calm 30.14 1021 2 2 0.00 0.00
3:43 am 03:43 Clear with Mist and Fog 65 18.3 64 17.8 97 97 Calm 30.14 1021 2 3 0.00 0.00
3:51 am 03:51 Clear with Mist and Fog 64 18 64 18 100 100 Calm 30.13 1020 2 3 0.00 0.00
3:53 am 03:53 Clear with Mist and Fog 65 18.3 64 17.8 97 97 Calm 30.13 1020 2 3 0.00 0.00
4:53 am 04:53 Clear with Mist and Fog 65 18.3 64 17.8 97 97 Calm 30.12 1020 1 2 0.00 0.00
5:13 am 05:13 Clear with Fog 64 17.8 63 17.2 96 96 Calm 30.13 1020 1 1 0.00 0.00
5:24 am 05:24 Clear with Mist and Fog 64 17.8 63 17.2 96 96 Calm 30.14 1021 1 2 0.00 0.00
5:53 am 05:53 Clear with Mist and Fog 64 17.8 63 17.2 96 96 NE 3 6 30.14 1021 2 2 0.00 0.00
6:25 am 06:25 Sunny with Mist and Fog 64 17.8 63 17.2 96 96 Calm 30.15 1021 1 1 0.00 0.00
6:36 am 06:36 Sunny with Mist and Fog 62 16.7 62 16.7 100 100 ENE 3 6 30.15 1021 1 2 0.00 0.00
6:45 am 06:45 Sunny with Mist and Fog 63 17.2 62 16.7 97 97 Calm 30.14 1021 5 8 0.00 0.00
6:53 am 06:53 Sunny with Mist and Fog 64 17.8 63 17.2 96 96 NNE 3 6 30.14 1021 5 8 0.00 0.00
7:53 am 07:53 Sunny with Mist and Fog 69 20.6 66 18.9 90 90 NE 3 6 30.15 1021 6 10 0.00 0.00
8:53 am 08:53 Sunny 73 22.8 66 18.9 79 79 Calm 30.15 1021 8 13 0.00 0.00
9:53 am 09:53 Sunny 80 26.7 68 20 67 67 Calm 30.15 1021 8 13 0.00 0.00
10:53 am 10:53 Sunny 83 28.3 63 17.2 51 51 SE 8 13 30.15 1021 10 16 0.00 0.00
11:53 am 11:53 Sunny 86 30 64 17.8 48 48 SSE 9 15 30.14 1021 10 16 0.00 0.00
12:53 pm 12:53 Sunny 86 30 63 17.2 46 46 S 9 15 30.13 1020 10 16 0.00 0.00
1:53 pm 13:53 Sunny 88 31.1 64 17.8 45 45 S 8 13 30.11 1020 10 16 0.00 0.00
2:53 pm 14:53 Sunny 88 31.1 63 17.2 43 43 SSE 9 15 30.09 1019 10 16 0.00 0.00
3:53 pm 15:53 Sunny 89 31.7 63 17.2 42 42 SE 8 13 30.07 1018 10 16 0.00 0.00
4:53 pm 16:53 Sunny 90 32.2 63 17.2 41 41 Calm 30.04 1017 10 16 0.00 0.00
5:53 pm 17:53 Sunny 89 31.7 63 17.2 42 42 VRB 3 6 30.03 1017 10 16 0.00 0.00
6:53 pm 18:53 Sunny 89 31.7 63 17.2 42 42 Calm 30.04 1017 10 16 0.00 0.00
7:53 pm 19:53 Sunny 87 30.6 66 18.9 50 50 VRB 5 7 30.04 1017 10 16 0.00 0.00
8:53 pm 20:53 Sunny 79 26.1 70 21.1 74 74 Calm 30.03 1017 10 16 0.00 0.00
9:53 pm 21:53 Clear 77 25 68 20 74 74 Calm 30.04 1017 10 16 0.00 0.00
10:53 pm 22:53 Clear 75 23.9 68 20 79 79 SSW 6 9 30.02 1017 10 16 0.00 0.00
11:53 pm 23:53 Clear 77 25 67 19.4 71 71 SW 5 7 30.01 1016 10 16 0.00 0.00

Powered by AerisWeather